SCP
0 0 0 0 0 0 0 0 0 0 0 0 0 0 0 0 0 0 0 0 0 0 0 0 0 0 0 0 0 0 0 0 0 0 0 0 0 0 0 0 0 0 0 0 0 0 0 0 0 0 0 0 0 0
0 0 0 0 0 0 0 0 0 0 0 0 0 0 0 0 0 0 0 0 0 0 0 0 0 0 0 0 0 0 0 0 0 0 0 0 0 0 0 0 0 0 0 0 0 0 0 0 0 0 0 0 0 0
0 0 0 0 0 0 0 0 0 0 0 0 0 0 0 0 0 0 0 0 0 0 0 0 0 0 0 0 0 0 0 0 0 0 0 0 0 0 0 0 0 0 0 0 0 0 0 0 0 0 0 0 0 0
0 0 0 0 0 0 0 0 0 0 0 0 0 0 0 0 0 0 0 0 0 0 0 0 0 0 0 0 0 0 0 0 0 0 0 0 0 0 0 0 0 0 0 0 0 0 0 0 0 0 0 0 0 0
0 0 0 0 0 0 0 0 0 0 0 0 0 0 0 0 0 0 0 0 0 0 0 0 0 0 0 0 0 0 0 0 0 0 0 0 0 0 0 0 0 0 0 0 0 0 0 0 0 0 0 0 0 0
0 0 0 0 0 0 0 0 0 0 0 0 0 0 0 0 0 0 0 0 0 0 0 0 0 0 0 0 0 0 0 0 0 0 0 0 0 0 0 0 0 0 0 0 0 0 0 0 0 0 0 0 0 0
0 0 0 0 0 0 0 0 0 0 0 0 0 0 0 0 0 0 0 0 0 0 0 0 0 0 0 0 0 0 0 0 0 0 0 0 0 0 0 0 0 0 0 0 0 0 0 0 0 0 0 0 0 0
0 0 0 0 0 0 0 0 0 0 0 0 0 0 0 0 0 0 0 0 0 0 0 0 0 0 0 0 0 0 0 0 0 0 0 0 0 0 0 0 0 0 0 0 0 0 0 0 0 0 0 0 0 0
0 0 0 0 0 0 0 0 0 0 0 0 0 0 0 0 0 0 0 0 0 0 0 0 0 0 0 0 0 0 0 0 0 0 0 0 0 0 0 0 0 0 0 0 0 0 0 0 0 0 0 0 0 0
0 0 0 0 0 0 0 0 0 0 0 0 0 0 0 0 0 0 0 0 0 0 0 0 0 0 0 0 0 0 0 0 0 0 0 0 0 0 0 0 0 -0 -0 0 0 0 0 0 0 0 0 0 0 0
0 0 0 0 0 0 0 0 0 0 0 0 0 0 0 0 0 0 0 0 0 0 0 0 0 0 0 0 0 0 0 0 0 0 0 0 0 0 0 0 0 0 0 0 0 0 0 0 0 0 0 0 0 0
0 0 0 0 0 0 0 0 0 0 0 0 0 0 0 0 0 0 0 0 0 0 0 0 0 0 0 0 0 0 0 0 0 0 0 0 0 0 0 0 0 0 0 0 0 0 0 0 0 0 0 0 0 0
0 0 0 0 0 0 0 0 0 0 0 0 0 0 0 0 0 0 0 0 0 0 0 0 0 0 0 0 0 0 0 0 0 0 0 0 0 0 0 0 0 0 0 0 0 0 0 0 0 0 0 0 0 0
0 0 0 0 0 0 0 0 0 0 0 0 0 0 0 0 0 0 0 0 0 0 0 0 0 0 0 0 0 0 0 0 0 0 0 0 0 0 0 0 0 0 0 0 0 0 0 0 0 0 0 0 0 0
0 0 0 0 0 0 0 0 0 0 0 0 0 0 0 0 0 0 0 0 0 0 0 0 0 0 0 0 0 0 0 0 0 0 0 0 0 0 0 0 0 0 0 0 0 0 0 0 0 0 0 0 0 0
-0 0 0 0 0 0 0 0 0 0 0 0 0 0 0 0 0 0 0 0 0 0 0 0 0 0 0 0 0 0 0 0 0 0 0 0 0 0 0 0 0 0 0 0 0 0 0 0 0 0 0 0 0 0
-0 0 0 0 0 0 0 0 0 0 0 0 0 0 0 0 0 0 0 0 0 0 0 0 0 0 0 0 0 0 0 0 0 0 0 0 0 0 0 0 0 0 0 0 0 0 0 0 -0 -0 -0 0 0 0
0 0 0 0 0 0 0 0 0 0 0 0 0 0 0 0 0 0 0 0 0 0 0 0 0 0 0 0 0 0 0 0 0 0 0 0 0 0 -0 0 0 0 0 0 0 0 0 0 0 0 0 0 0 0
0 -0 0 0 0 0 0 0 0 0 0 0 0 0 0 0 0 0 0 0 0 0 0 0 0 0 0 0 0 0 0 0 0 0 0 0 0 0 0 0 0 0 0 0 0 0 0 0 -0 -0 0 0 0 0
-0 -0 -0 -0 0 0 0 0 0 0 0 0 0 0 0 0 0 0 0 0 0 0 0 0 0 0 0 0 0 0 0 0 0 0 0 0 0 0 0 0 0 0 0 0 0 0 0 0 0 0 0 0 0 0
-0 -0 -0 0 0 0 0 0 0 0 0 0 0 0 0 0 0 0 0 0 0 0 0 0 0 0 0 0 0 0 0 0 0 0 0 0 0 0 0 0 0 0 0 0 0 0 0 0 0 0 0 0 0 0
0 -0 -0 -0 0 0 0 0 0 0 0 0 0 0 0 0 0 0 0 0 0 0 0 0 0 0 0 0 0 0 0 0 0 0 0 0 0 0 0 0 0 0 0 0 0 0 0 0 0 0 0 0 0 0
0 0 -0 -0 -0 -0 0 0 0 0 0 0 0 0 0 0 0 0 0 0 0 0 0 0 0 0 0 0 0 0 0 0 0 0 0 0 0 0 0 0 0 0 0 0 0 0 0 0 0 0 0 0 0 0
-0 0 -0 0 -0 0 0 0 0 0 0 0 0 0 0 0 0 0 0 0 0 0 0 0 0 0 0 0 0 0 0 0 0 0 0 0 0 0 0 0 0 0 0 0 0 0 0 0 0 0 0 0 0 0
0 -0 -0 -0 0 0 0 0 -0 0 0 -0 0 0 0 0 0 0 0 0 0 0 0 0 0 0 0 0 0 0 0 0 0 0 0 0 0 0 0 0 0 0 0 0 0 0 0 0 0 0 0 0 0 0
0 0 0 0 0 -0 0 -0 0 -0 -0 0 -0 -0 0 0 0 0 0 0 0 0 0 0 0 0 0 0 0 0 0 0 0 0 0 0 0 0 0 0 0 0 0 0 0 0 0 0 0 0 0 0 0 0
-0 -0 -0 -0 -0 0 0 0 0 0 0 0 0 0 0 0 0 0 0 0 0 0 0 0 0 0 0 0 0 0 0 0 0 0 0 0 0 0 0 0 0 0 0 0 0 0 0 0 0 0 0 0 0 0
-0 -0 -0 -0 -0 -0 -0 -0 -0 -0 -0 0 0 0 0 0 0 0 0 0 0 0 0 0 0 0 0 0 0 0 0 0 0 0 0 0 0 0 0 0 0 0 0 0 0 0 0 0 0 0 0 0 0 0
0 0 0 0 -0 -0 -0 -0 -0 -0 -0 -0 -0 -0 -0 0 0 0 0 0 0 0 0 0 0 0 0 0 0 0 0 0 0 0 0 0 0 0 0 0 0 0 0 0 0 0 0 0 0 0 0 0 0 0
0 0 0 0 0 0 0 0 0 0 0 0 -0 -0 -0 -0 -0 -0 -0 -0 -0 0 0 0 0 0 0 0 0 0 0 0 0 0 0 0 0 0 0 0 0 0 0 0 0 0 0 0 0 0 0 0 0 0
0 0 0 0 0 0 0 0 0 0 0 0 0 0 0 0 0 0 0 0 0 0 0 0 -0 0 0 0 0 0 0 0 0 0 0 0 0 0 0 0 0 0 0 0 0 0 0 0 0 0 0 0 0 0
0 0 0 0 0 0 0 0 0 0 0 0 0 0 0 0 0 0 0 0 0 0 0 0 0 0 0 0 0 0 0 0 0 0 0 0 0 0 0 0 0 0 0 0 0 0 0 0 0 0 0 0 0 0
0 0 0 0 0 0 0 0 0 0 0 0 0 0 0 0 0 0 0 0 0 0 0 0 0 0 0 0 0 0 0 0 0 0 0 0 0 0 0 0 0 0 0 0 0 0 0 0 0 0 0 0 0 0
Wind_Speed_500mb
21 16 20 17 19 22 17 19 23 23 19 19 26 21 21 24 22 24 20 12 11 14 22 22 19 15 21 15 13 18 15 3 4 6 6 7 6 9 8 11 15 15 14 8 5 5 19 15 8 19 14 28 29 19
28 26 18 15 16 21 20 23 24 27 21 21 28 26 24 23 21 20 30 18 31 19 25 42 43 36 23 22 41 13 7 9 14 7 2 7 5 5 10 10 2 5 12 13 18 12 5 27 11 18 21 21 17 15
13 25 27 24 17 19 23 25 26 27 22 20 24 29 27 27 22 19 33 33 33 43 33 23 30 28 21 28 44 15 10 11 11 13 7 4 8 5 7 6 6 6 6 6 7 7 11 23 8 6 2 7 11 16
11 21 36 30 24 19 24 29 32 29 26 22 27 33 33 30 22 21 29 30 26 19 9 7 24 28 25 18 20 15 36 29 30 18 10 5 6 2 4 6 6 9 17 12 6 3 14 5 7 10 6 1 10 17
15 19 33 41 32 27 28 33 35 34 30 25 27 30 29 27 26 27 28 28 24 8 9 13 22 19 19 22 30 31 34 43 24 9 7 3 8 7 3 4 4 12 11 10 7 11 14 18 11 3 4 10 9 12
13 20 27 35 40 31 32 36 38 39 34 29 27 29 34 33 29 34 12 24 25 32 14 5 8 10 19 24 28 32 29 26 13 11 5 9 7 7 5 5 12 27 15 15 14 19 11 5 14 21 23 17 15 19
13 20 29 34 36 36 40 41 40 39 38 34 31 31 37 42 34 10 10 20 35 23 12 7 4 8 26 28 19 17 16 15 12 9 6 8 6 7 5 8 8 27 26 18 15 12 11 20 13 13 14 21 32 48
14 16 32 35 40 43 44 43 41 39 39 35 32 31 34 36 32 16 18 37 36 15 11 6 1 5 9 9 9 10 10 10 7 9 8 7 10 5 7 9 33 23 18 14 12 12 18 27 33 42 48 53 58 60
20 27 34 30 37 44 42 41 40 39 40 41 40 42 38 33 22 28 44 44 26 13 10 6 8 6 13 10 11 8 7 4 8 4 4 13 5 10 4 20 25 24 23 29 34 38 39 40 40 42 50 52 49 49
30 27 26 28 34 35 37 38 38 38 41 46 50 23 9 31 54 56 24 7 6 7 7 4 12 4 11 7 5 8 4 6 5 8 16 5 8 29 8 12 14 14 19 21 30 35 40 51 51 52 58 57 56 56
29 24 20 24 29 32 35 35 38 41 46 38 10 8 43 67 34 8 10 7 6 6 3 7 11 12 11 6 5 5 4 2 5 7 10 4 8 7 17 30 30 29 28 31 37 42 40 42 44 52 57 56 54 54
31 24 16 16 22 27 34 34 42 50 31 22 27 40 29 10 7 7 6 4 7 9 7 8 11 14 13 9 8 3 6 5 6 4 7 6 3 7 11 11 8 6 12 19 28 33 34 36 42 48 55 62 65 65
29 23 19 13 14 27 39 41 45 41 34 40 17 9 9 5 7 7 7 5 4 8 15 19 5 11 9 7 11 6 7 7 1 4 7 7 11 8 11 11 6 4 8 14 18 25 30 31 34 42 48 49 54 58
27 23 19 14 4 24 52 58 56 56 15 10 8 9 5 5 4 5 8 9 7 12 32 42 12 8 7 7 4 9 6 7 6 1 10 5 15 12 12 10 8 8 10 15 18 23 26 28 31 38 46 50 53 55
31 30 24 20 33 32 31 63 62 27 13 7 8 7 5 8 11 9 13 9 11 28 34 20 12 8 3 7 4 7 9 6 10 9 6 19 16 9 6 9 14 18 22 22 25 29 32 37 41 43 44 47 51 53
27 29 27 22 26 32 44 47 40 24 11 9 13 11 9 6 6 7 13 13 18 24 24 11 6 7 3 8 7 12 15 12 8 6 11 12 2 6 8 11 16 20 22 27 31 35 37 39 44 47 49 53 53 50
15 31 26 20 18 24 29 38 23 14 11 8 8 18 13 14 10 8 9 12 24 13 4 6 9 13 5 6 2 8 10 7 8 14 8 1 7 13 16 18 22 24 26 29 35 38 38 37 41 48 54 51 52 50
26 16 16 22 20 16 21 16 11 10 16 17 6 8 12 12 11 8 13 19 13 11 9 6 8 5 10 13 7 5 5 8 7 5 4 11 15 18 23 25 27 30 32 34 37 41 44 48 48 45 47 51 50 44
21 20 24 22 19 12 9 11 11 10 13 10 13 14 12 13 15 9 13 17 15 15 16 6 5 5 6 3 5 8 8 6 3 4 10 13 14 15 21 27 33 37 38 40 40 41 42 44 46 47 45 43 41 35
11 12 16 18 20 10 11 12 10 13 8 7 8 7 8 9 12 13 9 7 12 11 6 3 2 8 5 6 5 3 4 7 11 12 14 15 18 29 36 41 40 41 41 41 40 42 43 38 38 39 37 35 34 29
20 19 19 13 13 19 14 8 12 11 9 9 9 9 8 9 8 7 6 5 3 8 2 4 7 5 3 3 4 7 9 13 16 17 23 29 27 36 38 39 43 43 43 41 41 35 33 33 31 29 29 27 25 23
18 19 19 16 13 13 17 19 12 9 7 7 6 5 8 5 9 10 7 10 8 8 5 5 6 6 6 6 8 9 11 13 16 18 23 31 33 31 27 30 33 32 32 32 32 30 26 25 25 23 22 21 21 21
16 11 13 13 10 12 8 10 7 7 6 2 3 5 6 6 8 4 7 6 6 9 10 7 6 5 6 7 8 9 9 10 12 14 15 17 20 22 22 21 24 24 21 19 21 22 22 20 19 18 16 15 16 16
13 12 16 14 21 4 6 10 8 7 7 6 4 3 5 8 12 3 3 2 6 11 11 11 9 7 5 5 4 6 10 13 15 16 19 20 20 17 21 19 18 20 22 22 20 19 18 17 16 14 13 13 13 13
9 25 16 14 18 11 12 8 9 8 5 5 4 4 4 9 3 4 2 3 10 13 14 13 11 9 9 9 11 12 14 17 19 20 17 21 22 20 19 19 19 19 19 19 18 17 16 16 15 14 14 14 14 14
16 23 13 7 11 8 2 6 4 1 2 5 2 7 6 4 6 2 4 5 8 12 16 16 15 14 11 13 13 15 17 20 22 23 21 21 21 24 24 24 20 18 17 18 20 20 19 18 17 17 18 17 18 19
12 9 13 17 9 5 6 5 3 6 5 3 5 7 4 6 2 6 6 7 14 20 21 21 22 22 20 17 17 17 19 21 23 24 23 24 25 27 29 28 25 23 23 22 22 21 21 20 21 21 22 22 22 24
10 19 5 19 9 11 5 4 5 2 4 3 3 6 6 9 6 8 8 19 21 21 20 19 18 18 19 19 20 19 20 22 23 25 24 22 18 18 20 21 22 23 24 23 24 23 24 24 25 27 28 28 27 29
10 23 13 10 6 9 8 3 3 2 6 3 3 4 6 5 7 11 14 16 15 15 15 16 19 19 19 19 19 20 20 23 25 24 21 17 16 18 19 19 20 21 22 23 25 27 28 29 30 32 32 33 32 33
14 25 9 7 4 3 5 7 7 13 12 9 11 10 9 5 5 12 13 13 16 19 21 21 20 21 20 21 18 15 21 23 22 22 24 20 21 21 22 24 26 28 29 28 28 28 30 32 34 38 39 38 37 38
17 16 7 4 3 5 14 15 14 11 9 7 10 10 11 11 3 7 10 13 19 26 29 23 21 25 23 24 26 28 21 23 25 28 31 32 30 30 30 32 34 36 35 35 35 35 36 38 40 43 45 47 46 49
13 11 10 6 4 10 11 16 10 6 5 5 5 7 7 6 5 4 5 9 13 27 37 33 24 24 25 24 28 30 27 25 26 29 32 34 34 34 36 37 39 42 44 45 45 45 46 49 50 50 53 53 53 53
9 10 7 8 7 5 10 19 4 8 6 5 4 5 5 5 5 6 18 18 21 29 35 32 23 28 29 28 32 26 28 32 33 34 36 38 39 39 40 39 40 43 45 46 46 47 49 51 54 54 55 57 58 58
Wind_Direction_500mb
194 165 181 183 211 205 207 196 185 190 184 178 178 175 161 162 153 152 136 102 103 97 63 88 111 108 123 127 135 162 118 119 88 101 123 182 126 192 102 150 167 161 150 172 137 208 257 191 121 168 160 139 152 165
176 167 180 198 210 206 199 192 184 178 189 180 182 175 167 165 159 148 125 135 117 103 108 94 92 100 122 144 132 138 126 137 158 109 115 107 109 116 141 178 43 216 176 174 187 205 246 169 96 130 149 152 196 222
205 201 193 184 198 205 194 191 184 187 183 177 174 172 165 155 155 152 137 124 108 105 92 95 97 101 106 130 159 137 155 132 126 119 127 124 125 119 152 207 91 277 176 148 98 208 173 168 147 116 164 258 250 238
257 227 211 198 184 205 196 193 188 186 181 172 171 171 163 166 149 134 144 145 127 120 105 75 115 113 114 126 158 149 146 132 128 120 89 115 121 186 184 142 149 194 141 155 276 305 99 86 131 105 95 284 271 265
270 235 211 203 194 197 200 185 184 183 178 170 172 171 174 161 150 142 152 155 152 109 120 115 115 103 124 110 109 120 139 140 118 77 70 135 124 109 357 69 252 192 168 171 205 153 121 158 134 107 318 317 314 312
248 208 199 199 202 197 192 180 183 177 177 170 170 167 161 167 152 146 105 157 120 119 93 89 84 93 120 135 122 117 127 121 95 98 108 92 122 97 106 207 249 194 165 147 153 121 104 188 275 292 297 297 297 305
225 207 188 189 193 192 183 176 175 171 168 171 166 166 165 168 159 136 129 165 161 103 99 103 72 103 129 127 110 115 113 89 87 87 73 109 105 128 111 219 200 203 200 199 198 201 255 269 276 293 289 282 291 301
203 167 172 170 175 172 167 167 166 167 168 169 160 168 173 167 154 129 117 156 164 132 79 101 112 94 116 95 92 103 101 110 105 106 114 114 116 92 248 104 168 135 139 168 182 231 261 275 284 291 289 288 289 291
147 116 122 135 134 146 153 156 160 163 167 168 161 165 161 153 126 124 143 140 125 112 113 96 132 175 132 87 92 88 94 77 132 107 205 147 186 217 159 155 161 188 211 242 254 257 264 274 279 281 282 284 287 295
141 136 136 141 143 145 150 154 158 156 157 162 164 148 113 151 142 136 129 108 59 50 79 102 116 115 141 107 93 105 127 160 167 209 153 156 248 236 240 111 115 178 213 236 247 254 262 263 268 278 282 287 287 291
142 136 145 160 161 164 161 161 161 157 166 161 139 95 134 140 137 122 123 124 107 13 147 107 123 129 157 102 147 117 173 181 131 245 158 246 269 109 237 234 237 224 226 235 245 254 262 269 274 277 280 283 287 288
148 135 135 160 177 183 177 175 170 174 175 155 143 137 130 104 101 109 86 76 80 195 159 118 118 110 119 133 96 156 146 60 216 166 125 263 235 100 103 107 130 181 226 239 251 265 273 277 279 281 281 282 283 283
136 135 128 136 190 197 189 179 181 171 158 134 126 104 102 53 95 124 138 300 97 176 156 151 107 113 119 117 75 86 84 205 36 68 215 227 150 92 87 84 87 12 314 297 288 287 292 290 285 284 286 285 284 283
109 99 90 65 65 187 188 180 163 165 127 62 78 82 82 88 118 168 165 174 132 155 144 136 103 117 110 61 134 96 243 72 55 20 235 232 167 113 85 68 66 52 19 349 340 333 327 320 303 289 286 288 288 286
102 90 81 64 67 120 165 144 151 128 87 79 79 74 63 132 61 79 88 100 91 132 143 116 71 88 9 92 73 96 41 227 204 226 227 150 128 89 44 360 347 344 337 332 327 322 318 316 313 310 308 301 291 288
110 101 75 72 65 96 111 129 133 95 66 60 59 91 102 75 348 62 84 102 128 135 126 93 101 66 266 132 105 205 137 210 234 219 132 133 68 359 350 331 324 318 318 320 322 322 321 316 309 304 302 301 299 291
149 79 107 87 76 76 100 117 78 57 64 53 40 73 79 68 95 120 117 126 146 141 120 113 105 197 96 66 287 192 191 209 143 137 124 355 322 326 326 328 326 327 323 317 312 310 307 304 303 303 300 300 298 294
121 118 139 145 132 115 78 61 72 69 62 53 76 49 61 70 91 89 109 133 142 142 133 174 130 112 165 159 255 221 109 132 117 104 17 321 324 324 324 321 317 316 314 313 310 309 312 313 310 306 299 297 296 295
113 110 120 131 142 99 74 44 43 87 61 62 75 72 74 85 70 85 126 132 127 125 120 114 98 180 218 175 149 137 102 91 89 338 315 309 309 307 308 311 313 313 311 309 307 307 307 308 308 307 306 304 302 294
112 130 128 118 117 92 81 49 50 72 75 67 64 61 57 62 86 81 102 127 124 121 85 139 140 155 125 119 84 74 359 334 327 328 302 289 307 308 310 310 309 308 307 305 305 306 306 306 305 304 304 305 304 299
98 123 135 143 75 62 86 88 77 78 91 81 71 52 54 60 47 55 66 106 59 44 60 80 108 109 61 16 334 323 312 315 310 309 298 299 302 304 306 303 301 301 302 302 301 301 299 301 303 303 301 300 299 296
96 108 110 75 70 62 64 47 73 80 68 85 59 51 56 37 19 19 35 36 56 43 49 20 1 351 343 321 314 316 316 311 307 311 311 314 322 317 312 306 305 303 300 301 300 302 302 301 301 304 300 295 289 282
111 86 61 53 83 57 48 55 69 47 71 359 53 58 29 18 3 42 70 49 62 17 356 349 334 329 332 338 332 330 331 326 323 323 321 321 326 327 327 324 318 316 314 311 307 307 306 307 305 302 299 295 288 280
89 59 37 43 34 58 55 41 46 52 54 30 38 55 7 336 348 66 80 16 9 6 3 352 334 319 319 305 307 320 322 318 312 314 315 314 314 315 309 312 310 309 308 312 312 310 311 310 305 298 293 288 282 274
76 14 26 8 23 38 33 18 5 41 48 333 53 3 351 346 52 53 198 310 352 2 2 360 354 339 312 305 304 313 314 311 309 308 307 305 308 312 309 307 308 307 308 308 307 306 305 304 299 294 288 281 277 273
66 15 38 344 2 57 315 61 36 65 29 26 321 309 327 63 65 249 248 323 345 351 355 353 351 348 341 328 318 307 307 303 301 300 299 297 297 302 307 307 304 308 302 309 311 304 302 298 293 288 285 282 279 277
51 343 19 27 18 16 51 73 76 86 68 39 301 347 37 68 286 262 334 354 341 341 341 341 341 339 337 333 321 312 304 303 303 303 301 299 294 291 292 296 294 288 288 294 296 297 292 288 286 283 281 278 278 277
65 25 42 341 22 26 126 52 52 58 265 337 303 21 128 175 226 341 342 339 339 337 334 328 330 331 330 326 325 322 315 313 310 311 310 305 295 293 293 295 292 286 287 285 284 285 286 286 283 280 280 280 277 276
34 356 352 3 18 35 43 126 233 343 330 305 150 267 267 269 330 343 348 350 351 353 354 347 342 344 339 338 331 328 324 321 320 321 320 314 298 298 298 297 295 294 291 289 285 284 283 281 280 281 281 281 281 279
1 357 4 12 63 356 4 356 324 317 304 283 292 292 290 288 349 353 3 23 32 30 19 9 359 352 346 337 336 328 320 318 318 317 320 326 317 314 308 301 295 293 293 293 291 288 288 285 285 285 288 287 286 284
343 348 328 338 296 347 337 328 321 307 293 281 273 275 294 310 310 32 71 61 40 23 10 358 354 348 349 347 344 340 341 320 319 312 307 307 305 303 299 295 295 295 295 295 294 292 290 288 288 287 287 288 290 290
333 348 343 333 321 329 337 344 316 305 291 292 284 302 310 304 285 254 286 319 334 353 355 353 347 350 342 335 336 334 331 329 323 317 313 310 309 306 300 296 293 291 291 291 291 291 291 291 290 289 289 289 289 289
306 330 326 312 308 326 338 338 301 321 262 268 276 299 311 298 268 343 332 322 314 325 330 335 334 338 336 333 330 326 323 323 322 320 316 313 312 308 303 298 293 291 291 292 292 292 291 291 290 291 291 291 291 291
Wind_Speed_850mb
21 16 20 17 19 22 17 19 23 23 19 19 26 21 21 24 22 24 20 12 11 14 22 22 19 15 21 15 13 18 15 3 4 6 6 7 6 9 8 11 15 15 14 8 5 5 19 15 8 19 14 28 29 19
28 26 18 15 16 21 20 23 24 27 21 21 28 26 24 23 21 20 30 18 31 19 25 42 43 36 23 22 41 13 7 9 14 7 2 7 5 5 10 10 2 5 12 13 18 12 5 27 11 18 21 21 17 15
13 25 27 24 17 19 23 25 26 27 22 20 24 29 27 27 22 19 33 33 33 43 33 23 30 28 21 28 44 15 10 11 11 13 7 4 8 5 7 6 6 6 6 6 7 7 11 23 8 6 2 7 11 16
11 21 36 30 24 19 24 29 32 29 26 22 27 33 33 30 22 21 29 30 26 19 9 7 24 28 25 18 20 15 36 29 30 18 10 5 6 2 4 6 6 9 17 12 6 3 14 5 7 10 6 1 10 17
15 19 33 41 32 27 28 33 35 34 30 25 27 30 29 27 26 27 28 28 24 8 9 13 22 19 19 22 30 31 34 43 24 9 7 3 8 7 3 4 4 12 11 10 7 11 14 18 11 3 4 10 9 12
13 20 27 35 40 31 32 36 38 39 34 29 27 29 34 33 29 34 12 24 25 32 14 5 8 10 19 24 28 32 29 26 13 11 5 9 7 7 5 5 12 27 15 15 14 19 11 5 14 21 23 17 15 19
13 20 29 34 36 36 40 41 40 39 38 34 31 31 37 42 34 10 10 20 35 23 12 7 4 8 26 28 19 17 16 15 12 9 6 8 6 7 5 8 8 27 26 18 15 12 11 20 13 13 14 21 32 48
14 16 32 35 40 43 44 43 41 39 39 35 32 31 34 36 32 16 18 37 36 15 11 6 1 5 9 9 9 10 10 10 7 9 8 7 10 5 7 9 33 23 18 14 12 12 18 27 33 42 48 53 58 60
20 27 34 30 37 44 42 41 40 39 40 41 40 42 38 33 22 28 44 44 26 13 10 6 8 6 13 10 11 8 7 4 8 4 4 13 5 10 4 20 25 24 23 29 34 38 39 40 40 42 50 52 49 49
30 27 26 28 34 35 37 38 38 38 41 46 50 23 9 31 54 56 24 7 6 7 7 4 12 4 11 7 5 8 4 6 5 8 16 5 8 29 8 12 14 14 19 21 30 35 40 51 51 52 58 57 56 56
29 24 20 24 29 32 35 35 38 41 46 38 10 8 43 67 34 8 10 7 6 6 3 7 11 12 11 6 5 5 4 2 5 7 10 4 8 7 17 30 30 29 28 31 37 42 40 42 44 52 57 56 54 54
31 24 16 16 22 27 34 34 42 50 31 22 27 40 29 10 7 7 6 4 7 9 7 8 11 14 13 9 8 3 6 5 6 4 7 6 3 7 11 11 8 6 12 19 28 33 34 36 42 48 55 62 65 65
29 23 19 13 14 27 39 41 45 41 34 40 17 9 9 5 7 7 7 5 4 8 15 19 5 11 9 7 11 6 7 7 1 4 7 7 11 8 11 11 6 4 8 14 18 25 30 31 34 42 48 49 54 58
27 23 19 14 4 24 52 58 56 56 15 10 8 9 5 5 4 5 8 9 7 12 32 42 12 8 7 7 4 9 6 7 6 1 10 5 15 12 12 10 8 8 10 15 18 23 26 28 31 38 46 50 53 55
31 30 24 20 33 32 31 63 62 27 13 7 8 7 5 8 11 9 13 9 11 28 34 20 12 8 3 7 4 7 9 6 10 9 6 19 16 9 6 9 14 18 22 22 25 29 32 37 41 43 44 47 51 53
27 29 27 22 26 32 44 47 40 24 11 9 13 11 9 6 6 7 13 13 18 24 24 11 6 7 3 8 7 12 15 12 8 6 11 12 2 6 8 11 16 20 22 27 31 35 37 39 44 47 49 53 53 50
15 31 26 20 18 24 29 38 23 14 11 8 8 18 13 14 10 8 9 12 24 13 4 6 9 13 5 6 2 8 10 7 8 14 8 1 7 13 16 18 22 24 26 29 35 38 38 37 41 48 54 51 52 50
26 16 16 22 20 16 21 16 11 10 16 17 6 8 12 12 11 8 13 19 13 11 9 6 8 5 10 13 7 5 5 8 7 5 4 11 15 18 23 25 27 30 32 34 37 41 44 48 48 45 47 51 50 44
21 20 24 22 19 12 9 11 11 10 13 10 13 14 12 13 15 9 13 17 15 15 16 6 5 5 6 3 5 8 8 6 3 4 10 13 14 15 21 27 33 37 38 40 40 41 42 44 46 47 45 43 41 35
11 12 16 18 20 10 11 12 10 13 8 7 8 7 8 9 12 13 9 7 12 11 6 3 2 8 5 6 5 3 4 7 11 12 14 15 18 29 36 41 40 41 41 41 40 42 43 38 38 39 37 35 34 29
20 19 19 13 13 19 14 8 12 11 9 9 9 9 8 9 8 7 6 5 3 8 2 4 7 5 3 3 4 7 9 13 16 17 23 29 27 36 38 39 43 43 43 41 41 35 33 33 31 29 29 27 25 23
18 19 19 16 13 13 17 19 12 9 7 7 6 5 8 5 9 10 7 10 8 8 5 5 6 6 6 6 8 9 11 13 16 18 23 31 33 31 27 30 33 32 32 32 32 30 26 25 25 23 22 21 21 21
16 11 13 13 10 12 8 10 7 7 6 2 3 5 6 6 8 4 7 6 6 9 10 7 6 5 6 7 8 9 9 10 12 14 15 17 20 22 22 21 24 24 21 19 21 22 22 20 19 18 16 15 16 16
13 12 16 14 21 4 6 10 8 7 7 6 4 3 5 8 12 3 3 2 6 11 11 11 9 7 5 5 4 6 10 13 15 16 19 20 20 17 21 19 18 20 22 22 20 19 18 17 16 14 13 13 13 13
9 25 16 14 18 11 12 8 9 8 5 5 4 4 4 9 3 4 2 3 10 13 14 13 11 9 9 9 11 12 14 17 19 20 17 21 22 20 19 19 19 19 19 19 18 17 16 16 15 14 14 14 14 14
16 23 13 7 11 8 2 6 4 1 2 5 2 7 6 4 6 2 4 5 8 12 16 16 15 14 11 13 13 15 17 20 22 23 21 21 21 24 24 24 20 18 17 18 20 20 19 18 17 17 18 17 18 19
12 9 13 17 9 5 6 5 3 6 5 3 5 7 4 6 2 6 6 7 14 20 21 21 22 22 20 17 17 17 19 21 23 24 23 24 25 27 29 28 25 23 23 22 22 21 21 20 21 21 22 22 22 24
10 19 5 19 9 11 5 4 5 2 4 3 3 6 6 9 6 8 8 19 21 21 20 19 18 18 19 19 20 19 20 22 23 25 24 22 18 18 20 21 22 23 24 23 24 23 24 24 25 27 28 28 27 29
10 23 13 10 6 9 8 3 3 2 6 3 3 4 6 5 7 11 14 16 15 15 15 16 19 19 19 19 19 20 20 23 25 24 21 17 16 18 19 19 20 21 22 23 25 27 28 29 30 32 32 33 32 33
14 25 9 7 4 3 5 7 7 13 12 9 11 10 9 5 5 12 13 13 16 19 21 21 20 21 20 21 18 15 21 23 22 22 24 20 21 21 22 24 26 28 29 28 28 28 30 32 34 38 39 38 37 38
17 16 7 4 3 5 14 15 14 11 9 7 10 10 11 11 3 7 10 13 19 26 29 23 21 25 23 24 26 28 21 23 25 28 31 32 30 30 30 32 34 36 35 35 35 35 36 38 40 43 45 47 46 49
13 11 10 6 4 10 11 16 10 6 5 5 5 7 7 6 5 4 5 9 13 27 37 33 24 24 25 24 28 30 27 25 26 29 32 34 34 34 36 37 39 42 44 45 45 45 46 49 50 50 53 53 53 53
9 10 7 8 7 5 10 19 4 8 6 5 4 5 5 5 5 6 18 18 21 29 35 32 23 28 29 28 32 26 28 32 33 34 36 38 39 39 40 39 40 43 45 46 46 47 49 51 54 54 55 57 58 58
Wind_Direction_850mb
194 165 181 183 211 205 207 196 185 190 184 178 178 175 161 162 153 152 136 102 103 97 63 88 111 108 123 127 135 162 118 119 88 101 123 182 126 192 102 150 167 161 150 172 137 208 257 191 121 168 160 139 152 165
176 167 180 198 210 206 199 192 184 178 189 180 182 175 167 165 159 148 125 135 117 103 108 94 92 100 122 144 132 138 126 137 158 109 115 107 109 116 141 178 43 216 176 174 187 205 246 169 96 130 149 152 196 222
205 201 193 184 198 205 194 191 184 187 183 177 174 172 165 155 155 152 137 124 108 105 92 95 97 101 106 130 159 137 155 132 126 119 127 124 125 119 152 207 91 277 176 148 98 208 173 168 147 116 164 258 250 238
257 227 211 198 184 205 196 193 188 186 181 172 171 171 163 166 149 134 144 145 127 120 105 75 115 113 114 126 158 149 146 132 128 120 89 115 121 186 184 142 149 194 141 155 276 305 99 86 131 105 95 284 271 265
270 235 211 203 194 197 200 185 184 183 178 170 172 171 174 161 150 142 152 155 152 109 120 115 115 103 124 110 109 120 139 140 118 77 70 135 124 109 357 69 252 192 168 171 205 153 121 158 134 107 318 317 314 312
248 208 199 199 202 197 192 180 183 177 177 170 170 167 161 167 152 146 105 157 120 119 93 89 84 93 120 135 122 117 127 121 95 98 108 92 122 97 106 207 249 194 165 147 153 121 104 188 275 292 297 297 297 305
225 207 188 189 193 192 183 176 175 171 168 171 166 166 165 168 159 136 129 165 161 103 99 103 72 103 129 127 110 115 113 89 87 87 73 109 105 128 111 219 200 203 200 199 198 201 255 269 276 293 289 282 291 301
203 167 172 170 175 172 167 167 166 167 168 169 160 168 173 167 154 129 117 156 164 132 79 101 112 94 116 95 92 103 101 110 105 106 114 114 116 92 248 104 168 135 139 168 182 231 261 275 284 291 289 288 289 291
147 116 122 135 134 146 153 156 160 163 167 168 161 165 161 153 126 124 143 140 125 112 113 96 132 175 132 87 92 88 94 77 132 107 205 147 186 217 159 155 161 188 211 242 254 257 264 274 279 281 282 284 287 295
141 136 136 141 143 145 150 154 158 156 157 162 164 148 113 151 142 136 129 108 59 50 79 102 116 115 141 107 93 105 127 160 167 209 153 156 248 236 240 111 115 178 213 236 247 254 262 263 268 278 282 287 287 291
142 136 145 160 161 164 161 161 161 157 166 161 139 95 134 140 137 122 123 124 107 13 147 107 123 129 157 102 147 117 173 181 131 245 158 246 269 109 237 234 237 224 226 235 245 254 262 269 274 277 280 283 287 288
148 135 135 160 177 183 177 175 170 174 175 155 143 137 130 104 101 109 86 76 80 195 159 118 118 110 119 133 96 156 146 60 216 166 125 263 235 100 103 107 130 181 226 239 251 265 273 277 279 281 281 282 283 283
136 135 128 136 190 197 189 179 181 171 158 134 126 104 102 53 95 124 138 300 97 176 156 151 107 113 119 117 75 86 84 205 36 68 215 227 150 92 87 84 87 12 314 297 288 287 292 290 285 284 286 285 284 283
109 99 90 65 65 187 188 180 163 165 127 62 78 82 82 88 118 168 165 174 132 155 144 136 103 117 110 61 134 96 243 72 55 20 235 232 167 113 85 68 66 52 19 349 340 333 327 320 303 289 286 288 288 286
102 90 81 64 67 120 165 144 151 128 87 79 79 74 63 132 61 79 88 100 91 132 143 116 71 88 9 92 73 96 41 227 204 226 227 150 128 89 44 360 347 344 337 332 327 322 318 316 313 310 308 301 291 288
110 101 75 72 65 96 111 129 133 95 66 60 59 91 102 75 348 62 84 102 128 135 126 93 101 66 266 132 105 205 137 210 234 219 132 133 68 359 350 331 324 318 318 320 322 322 321 316 309 304 302 301 299 291
149 79 107 87 76 76 100 117 78 57 64 53 40 73 79 68 95 120 117 126 146 141 120 113 105 197 96 66 287 192 191 209 143 137 124 355 322 326 326 328 326 327 323 317 312 310 307 304 303 303 300 300 298 294
121 118 139 145 132 115 78 61 72 69 62 53 76 49 61 70 91 89 109 133 142 142 133 174 130 112 165 159 255 221 109 132 117 104 17 321 324 324 324 321 317 316 314 313 310 309 312 313 310 306 299 297 296 295
113 110 120 131 142 99 74 44 43 87 61 62 75 72 74 85 70 85 126 132 127 125 120 114 98 180 218 175 149 137 102 91 89 338 315 309 309 307 308 311 313 313 311 309 307 307 307 308 308 307 306 304 302 294
112 130 128 118 117 92 81 49 50 72 75 67 64 61 57 62 86 81 102 127 124 121 85 139 140 155 125 119 84 74 359 334 327 328 302 289 307 308 310 310 309 308 307 305 305 306 306 306 305 304 304 305 304 299
98 123 135 143 75 62 86 88 77 78 91 81 71 52 54 60 47 55 66 106 59 44 60 80 108 109 61 16 334 323 312 315 310 309 298 299 302 304 306 303 301 301 302 302 301 301 299 301 303 303 301 300 299 296
96 108 110 75 70 62 64 47 73 80 68 85 59 51 56 37 19 19 35 36 56 43 49 20 1 351 343 321 314 316 316 311 307 311 311 314 322 317 312 306 305 303 300 301 300 302 302 301 301 304 300 295 289 282
111 86 61 53 83 57 48 55 69 47 71 359 53 58 29 18 3 42 70 49 62 17 356 349 334 329 332 338 332 330 331 326 323 323 321 321 326 327 327 324 318 316 314 311 307 307 306 307 305 302 299 295 288 280
89 59 37 43 34 58 55 41 46 52 54 30 38 55 7 336 348 66 80 16 9 6 3 352 334 319 319 305 307 320 322 318 312 314 315 314 314 315 309 312 310 309 308 312 312 310 311 310 305 298 293 288 282 274
76 14 26 8 23 38 33 18 5 41 48 333 53 3 351 346 52 53 198 310 352 2 2 360 354 339 312 305 304 313 314 311 309 308 307 305 308 312 309 307 308 307 308 308 307 306 305 304 299 294 288 281 277 273
66 15 38 344 2 57 315 61 36 65 29 26 321 309 327 63 65 249 248 323 345 351 355 353 351 348 341 328 318 307 307 303 301 300 299 297 297 302 307 307 304 308 302 309 311 304 302 298 293 288 285 282 279 277
51 343 19 27 18 16 51 73 76 86 68 39 301 347 37 68 286 262 334 354 341 341 341 341 341 339 337 333 321 312 304 303 303 303 301 299 294 291 292 296 294 288 288 294 296 297 292 288 286 283 281 278 278 277
65 25 42 341 22 26 126 52 52 58 265 337 303 21 128 175 226 341 342 339 339 337 334 328 330 331 330 326 325 322 315 313 310 311 310 305 295 293 293 295 292 286 287 285 284 285 286 286 283 280 280 280 277 276
34 356 352 3 18 35 43 126 233 343 330 305 150 267 267 269 330 343 348 350 351 353 354 347 342 344 339 338 331 328 324 321 320 321 320 314 298 298 298 297 295 294 291 289 285 284 283 281 280 281 281 281 281 279
1 357 4 12 63 356 4 356 324 317 304 283 292 292 290 288 349 353 3 23 32 30 19 9 359 352 346 337 336 328 320 318 318 317 320 326 317 314 308 301 295 293 293 293 291 288 288 285 285 285 288 287 286 284
343 348 328 338 296 347 337 328 321 307 293 281 273 275 294 310 310 32 71 61 40 23 10 358 354 348 349 347 344 340 341 320 319 312 307 307 305 303 299 295 295 295 295 295 294 292 290 288 288 287 287 288 290 290
333 348 343 333 321 329 337 344 316 305 291 292 284 302 310 304 285 254 286 319 334 353 355 353 347 350 342 335 336 334 331 329 323 317 313 310 309 306 300 296 293 291 291 291 291 291 291 291 290 289 289 289 289 289
306 330 326 312 308 326 338 338 301 321 262 268 276 299 311 298 268 343 332 322 314 325 330 335 334 338 336 333 330 326 323 323 322 320 316 313 312 308 303 298 293 291 291 292 292 292 291 291 290 291 291 291 291 291